User: anonymous   Login
Location: Cluny
(50.9333°N, 112.8167°W)
Time: 07:23:57
(UTC-06:00)
Language:

Hamsat - Orbit

View from above orbital plane
View from above orbital plane
View from above satellite
View from above satellite

Ground track
Ground track

The orbit data is extracted from the following two-line orbital elements,

1 28650U 05017B   16183.18374632  .00000302  00000-0  38228-4 0  9999
2 28650  97.6085 164.4643 0022839 209.7182 150.2739 14.88312503603954
Epoch (UTC): 01 July 2016 04:24:35
Eccentricity: 0.0022839
inclination: 97.6085°
perigee height: 587 km
apogee height: 619 km
right ascension of ascending node: 164.4643°
argument of perigee: 209.7182°
revolutions per day: 14.88312503
mean anomaly at epoch: 150.2739°
orbit number at epoch: 60395

The dashed part of the orbit path shows where the satellite is in the earth's shadow,  

DLR